{"data":{"norad_id":66235,"epoch":"2026-05-24T19:26:18.163680Z","epoch_age_seconds":95484,"freshness":"FRESH","line1":"1 66235U 25245B   26144.80993245  .00019139  00000+0  65655-3 0  9999","line2":"2 66235  53.1593 290.1314 0000992  83.5447 276.5667 15.30204808 32860","mean_motion":15.30204808,"eccentricity":9.92e-5,"inclination_deg":53.1593,"raan_deg":290.1314,"arg_perigee_deg":83.5447,"mean_anomaly_deg":276.5667,"bstar":0.00065655,"rev_number":3286,"period_min":94.105050021513,"perigee_km":474.52086253437,"apogee_km":475.88056473675,"semimajor_km":6853.3377136356,"source":"CELESTRAK","updated_at":"2026-05-25T13:38:21.133316Z"}}